Sitka, AK

12:07 AM AKDT on May 26, 2017 (GMT -0800)
Sitka Rocky Gutierrez

Weather History for PASI - January, 2013

Change the Weather History Date:

Wednesday, January 16, 2013

  Actual Average Record
Temperature  
Mean Temperature 42 °F -  
Max Temperature 46 °F 38 °F 54 °F (1965)
Min Temperature 37 °F 31 °F 7 °F (1971)
Degree Days  
Heating Degree Days 24    
Moisture  
Dew Point 39 °F    
Average Humidity 94    
Maximum Humidity 100    
Minimum Humidity 86    
Precipitation  
Precipitation 1.49 in - - ()
Sea Level Pressure  
Sea Level Pressure 30.08 in    
Wind  
Wind Speed 7 mph (ESE)    
Max Wind Speed 25 mph    
Max Gust Speed 34 mph    
Visibility 7 miles    
Events Rain    
Averages and records for this station are not official NWS values.
T = Trace of Precipitation, MM = Missing Value Source: NWS Daily Summary

Daily Weather History Graph

Daily Weather History Graph

Search for Another Location

Airport or City:

Trip Planner

Search our weather history database for the weather conditions in past years. The results will help you decide how hot, cold, wet, or windy it might be!

Date:

Astronomy

Jan. 16, 2013 Rise Set
Actual Time 8:26 AM AKST 3:56 PM AKST
Civil Twilight 7:40 AM AKST 4:42 PM AKST
Nautical Twilight 6:52 AM AKST 5:31 PM AKST
Astronomical Twilight 6:06 AM AKST 6:16 PM AKST
Moon 9:49 AM AKST (1/16) 11:21 PM AKST (1/16)
Length of Visible Light 9h 01m
Length of Day
7h 29m
Waxing Crescent, 29% of the Moon is Illuminated
Jan 16
Waxing Crescent
Jan 18
First Quarter
Jan 26
Full
Feb 3
Last Quarter
Feb 9
New

Hourly Weather History & Observations

Time (AKST) Temp. Windchill Dew Point Humidity Pressure Visibility Wind Dir Wind Speed Gust Speed Precip Events Conditions
12:11 AM 39.2 °F 35.9 °F 39.2 °F 100% 30.37 in 10.0 mi East 4.6 mph - N/A   Mostly Cloudy
12:21 AM 39.2 °F 35.9 °F 39.2 °F 100% 30.37 in 10.0 mi SE 4.6 mph - N/A   Scattered Clouds
12:53 AM 39.0 °F - 39.0 °F 100% 30.38 in 10.0 mi Calm Calm - N/A   Mostly Cloudy
1:13 AM 39.2 °F - 37.4 °F 93% 30.38 in 10.0 mi Calm Calm - N/A   Overcast
1:53 AM 37.9 °F 34.4 °F 37.9 °F 100% 30.39 in 10.0 mi ESE 4.6 mph - N/A   Overcast
3:53 AM 39.0 °F 34.8 °F 37.9 °F 96% 30.38 in 10.0 mi East 5.8 mph - N/A   Partly Cloudy
4:53 AM 37.9 °F 33.5 °F 37.0 °F 97% 30.35 in 10.0 mi East 5.8 mph - N/A   Clear
5:53 AM 37.9 °F - 37.0 °F 97% 30.33 in 7.0 mi Calm Calm - N/A   Clear
6:53 AM 37.9 °F 33.5 °F 37.0 °F 97% 30.31 in 7.0 mi NE 5.8 mph - N/A   Mostly Cloudy
7:53 AM 37.0 °F - 37.0 °F 100% 30.30 in 10.0 mi Calm Calm - N/A   Overcast
8:53 AM 37.0 °F 31.6 °F 36.0 °F 96% 30.29 in 10.0 mi ENE 6.9 mph - N/A   Overcast
9:53 AM 37.9 °F 35.5 °F 36.0 °F 93% 30.25 in 10.0 mi NNE 3.5 mph - N/A   Overcast
10:53 AM 37.9 °F 34.4 °F 36.0 °F 93% 30.21 in 10.0 mi East 4.6 mph - N/A   Overcast
11:53 AM 39.0 °F 33.4 °F 35.1 °F 86% 30.16 in 4.0 mi East 8.1 mph - 0.00 in Rain Light Rain
12:53 PM 39.0 °F 32.3 °F 36.0 °F 89% 30.11 in 6.0 mi SSE 10.4 mph - 0.03 in Rain Light Rain
1:43 PM 37.4 °F 30.8 °F 37.4 °F 100% 30.07 in 10.0 mi South 9.2 mph - 0.03 in Rain Light Rain
1:53 PM 39.0 °F 33.4 °F 37.0 °F 93% 30.07 in 6.0 mi SSE 8.1 mph - 0.03 in Rain Light Rain
2:18 PM 39.2 °F 32.5 °F 37.4 °F 93% 30.04 in 5.0 mi ESE 10.4 mph - 0.02 in Rain Light Rain
2:53 PM 41.0 °F 33.9 °F 37.0 °F 86% 30.01 in 6.0 mi ESE 12.7 mph - 0.03 in Rain Light Rain
3:25 PM 39.2 °F 32.0 °F 37.4 °F 93% 30.00 in 2.5 mi ESE 11.5 mph - 0.01 in Rain Light Rain
3:36 PM 39.2 °F 32.5 °F 37.4 °F 93% 29.99 in 3.0 mi ESE 10.4 mph - 0.04 in Rain Rain
3:53 PM 41.0 °F 33.9 °F 37.9 °F 89% 29.99 in 6.0 mi ESE 12.7 mph - 0.07 in Rain Rain
4:53 PM 41.0 °F 32.8 °F 39.0 °F 93% 29.94 in 4.0 mi ESE 16.1 mph - 0.11 in Rain Rain
5:53 PM 42.1 °F 34.5 °F 39.0 °F 89% 29.89 in 5.0 mi SE 15.0 mph 23.0 mph 0.18 in Rain Rain
6:53 PM 43.0 °F 36.0 °F 41.0 °F 93% 29.86 in 6.0 mi ESE 13.8 mph - 0.21 in Rain Rain
7:53 PM 46.0 °F 37.4 °F 42.1 °F 86% 29.83 in 4.0 mi SSE 25.3 mph 34.5 mph 0.18 in Rain Rain
8:50 PM 44.6 °F 37.2 °F 42.8 °F 93% 29.83 in 2.5 mi South 17.3 mph 26.5 mph 0.10 in Rain Rain
8:53 PM 45.0 °F 37.1 °F 43.0 °F 93% 29.82 in 3.0 mi SSE 19.6 mph 26.5 mph 0.11 in Rain Rain
9:35 PM 44.6 °F 37.8 °F 42.8 °F 93% 29.80 in 2.5 mi SE 15.0 mph 25.3 mph 0.11 in Rain Rain
9:45 PM 44.6 °F 37.4 °F 42.8 °F 93% 29.80 in 3.0 mi SSE 16.1 mph 21.9 mph 0.15 in Rain Rain
9:53 PM 45.0 °F 38.9 °F 43.0 °F 93% 29.79 in 4.0 mi SE 12.7 mph 21.9 mph 0.17 in Rain Rain
10:53 PM 45.0 °F 38.5 °F 41.0 °F 86% 29.75 in 6.0 mi SE 13.8 mph - 0.20 in Rain Rain
11:53 PM 43.0 °F 36.4 °F 41.0 °F 93% 29.73 in 5.0 mi ESE 12.7 mph - 0.17 in Rain Rain